Left ArrowRight Arrow

Hourly Observations for June 16, 2024

Temp ( °F °C ) Dew Point ( °F °C ) Humidity (%) Winds ( mph kmh ) Pressure ( in mb ) Visibility ( mi km ) Precip ( " mm )
12:53 am 00:53 Clear 47 8.3 30 -1.1 51 51 SW 20 31 29.72 1007 10 16 0.00 0.00
1:53 am 01:53 Clear 48 8.9 30 -1.1 49 49 SW 21 33 29.71 1006 10 16 0.00 0.00
2:53 am 02:53 Mostly Cloudy 45 7.2 29 -1.7 53 53 SW 15 24 29.73 1007 10 16 0.00 0.00
3:53 am 03:53 Cloudy 47 8.3 28 -2.2 47 47 SW 24 39 29.73 1007 10 16 0.00 0.00
4:53 am 04:53 Cloudy 47 8.3 28 -2.2 47 47 SW 28 44 29.73 1007 10 16 0.00 0.00
5:53 am 05:53 Mostly Sunny 47 8.3 28 -2.2 47 47 SW 26 43 29.73 1007 10 16 0.00 0.00
6:53 am 06:53 Cloudy 49 9.4 30 -1.1 48 48 WSW 22 35 29.75 1008 10 16 0.00 0.00
7:53 am 07:53 Cloudy 46 7.8 40 4.4 79 79 WSW 23 37 29.77 1008 10 16 0.01 0.25
8:53 am 08:53 Cloudy with Light Rain 46 7.8 39 3.9 76 76 W 25 41 29.79 1009 10 16 0.01 0.13
9:53 am 09:53 Cloudy with Light Rain 49 9.4 40 4.4 71 71 W 28 44 29.79 1009 10 16 0.01 0.13
10:53 am 10:53 Cloudy 54 12.2 38 3.3 54 54 WSW 26 43 29.80 1009 10 16 0.01 0.13
11:53 am 11:53 Cloudy 56 13.3 37 2.8 49 49 W 16 26 29.79 1009 10 16 0.00 0.00
12:53 pm 12:53 Cloudy 58 14.4 32 0 37 37 W 22 35 29.79 1009 10 16 0.00 0.00
1:53 pm 13:53 Cloudy 60 15.6 36 2.2 40 40 WNW 24 39 29.80 1009 10 16 0.00 0.00
2:53 pm 14:53 Cloudy 59 15 38 3.3 45 45 NW 22 35 29.81 1010 10 16 0.00 0.00
3:53 pm 15:53 Mostly Cloudy with Light Rain 59 15 40 4.4 49 49 WNW 22 35 29.83 1010 10 16 0.01 0.13
4:53 pm 16:53 Mostly Cloudy with Light Rain 62 16.7 38 3.3 41 41 WNW 20 31 29.82 1010 10 16 0.01 0.13
5:53 pm 17:53 Partly Cloudy 61 16.1 40 4.4 46 46 NW 22 35 29.83 1010 10 16 0.01 0.13
6:53 pm 18:53 Mostly Cloudy 56 13.3 43 6.1 62 62 NW 12 19 29.84 1011 10 16 0.00 0.00
7:53 pm 19:53 Sunny 55 12.8 40 4.4 57 57 NNW 12 19 29.86 1011 10 16 0.00 0.00
8:53 pm 20:53 Sunny 52 11.1 42 5.6 69 69 NW 5 7 29.88 1012 10 16 0.00 0.00
9:53 pm 21:53 Clear 48 8.9 41 5 76 76 N 6 9 29.87 1011 10 16 0.00 0.00
10:53 pm 22:53 Mostly Clear 48 8.9 41 5 76 76 Calm 29.90 1012 10 16 0.00 0.00
11:53 pm 23:53 Cloudy 48 8.9 42 5.6 80 80 Calm 29.89 1012 10 16 0.00 0.00

Powered by Vaisala Xweather